Weather History for Tracy, MN

Change the Weather History Date:

Monday, January 7, 2013

  Actual Average (KMML) Record (KMML)
Temperature  
Mean Temperature 30 °F -  
Max Temperature 35 °F 17 °F 55 °F (2003)
Min Temperature 22 °F 0 °F -22 °F (1976)
Degree Days  
Heating Degree Days 36    
Moisture  
Dew Point 21 °F    
Average Humidity 73    
Maximum Humidity 82    
Minimum Humidity 62    
Precipitation  
Precipitation 0.00 in - - ()
Sea Level Pressure  
Sea Level Pressure 29.90 in    
Wind  
Wind Speed 17 mph (SW)    
Max Wind Speed 30 mph    
Max Gust Speed 37 mph    
Visibility 10 miles    
Events      
Averages and records for this station are not official NWS values.
T = Trace of Precipitation, MM = Missing Value Source: NWS Daily Summary

Daily Weather History Graph

Daily Weather History Graph

Search for Another Location

Airport:

Trip Planner

Search our weather history database for the weather conditions in past years. The results will help you decide how hot, cold, wet, or windy it might be!

Date:

Astronomy

Jan. 07, 2013 Rise Set
Actual Time 7:57 AM CST 5:00 PM CST
Civil Twilight 7:24 AM CST 5:33 PM CST
Nautical Twilight 6:48 AM CST 6:09 PM CST
Astronomical Twilight 6:13 AM CST 6:44 PM CST
Moon 3:19 AM CST (1/7) 1:14 PM CST (1/7)
Length of Visible Light 10h 08m
Length of Day
9h 02m
Waning Crescent, 22% of the Moon is Illuminated
Jan 7
Waning Crescent
Jan 11
New
Jan 18
First Quarter
Jan 26
Full
Feb 3
Last Quarter

Hourly Weather History & Observations

Time (CST) Temp. Windchill Dew Point Humidity Pressure Visibility Wind Dir Wind Speed Gust Speed Precip Events Conditions
12:17 AM 29.1 °F 14.2 °F 18.7 °F 65% 29.84 in 10.0 mi SSW 27.6 mph 36.8 mph N/A   Clear
12:56 AM 29.1 °F 14.5 °F 19.6 °F 68% 29.84 in 10.0 mi SSW 26.5 mph 34.5 mph N/A   Clear
1:36 AM 28.4 °F 15.1 °F 19.8 °F 70% 29.85 in 10.0 mi SSW 20.7 mph 28.8 mph N/A   Clear
1:57 AM 27.7 °F 13.5 °F 19.6 °F 72% 29.87 in 10.0 mi SSW 23.0 mph 28.8 mph N/A   Clear
2:17 AM 27.5 °F 12.3 °F 19.4 °F 72% 29.86 in 10.0 mi SSW 26.5 mph 33.4 mph N/A   Clear
2:36 AM 27.3 °F 11.8 °F 19.4 °F 72% 29.86 in 10.0 mi SW 27.6 mph 35.7 mph N/A   Clear
2:57 AM 27.3 °F 11.3 °F 19.8 °F 73% 29.85 in 10.0 mi SSW 29.9 mph 36.8 mph N/A   Clear
3:17 AM 27.3 °F 11.8 °F 19.9 °F 74% 29.85 in 10.0 mi SW 27.6 mph 34.5 mph N/A   Clear
3:36 AM 27.0 °F 10.8 °F 20.1 °F 75% 29.84 in 10.0 mi SW 29.9 mph 36.8 mph N/A   Clear
3:57 AM 27.0 °F 10.8 °F 20.3 °F 76% 29.84 in 10.0 mi SW 29.9 mph 36.8 mph N/A   Clear
4:17 AM 27.1 °F 11.3 °F 20.3 °F 75% 29.84 in 10.0 mi SW 28.8 mph - N/A   Clear
4:36 AM 27.3 °F 12.1 °F 20.7 °F 76% 29.84 in 10.0 mi SW 26.5 mph 34.5 mph N/A   Clear
5:17 AM 27.3 °F 13.3 °F 20.8 °F 77% 29.85 in 10.0 mi SW 21.9 mph - N/A   Clear
5:37 AM 27.0 °F 13.2 °F 20.7 °F 77% 29.85 in 10.0 mi SW 20.7 mph 26.5 mph N/A   Clear
5:57 AM 27.1 °F 14.5 °F 20.8 °F 77% 29.86 in 10.0 mi SW 17.3 mph 25.3 mph N/A   Clear
6:17 AM 26.6 °F 15.2 °F 20.8 °F 79% 29.86 in 10.0 mi SW 13.8 mph - N/A   Clear
6:36 AM 26.2 °F 15.2 °F 20.7 °F 79% 29.87 in 10.0 mi SW 12.7 mph 20.7 mph N/A   Clear
6:57 AM 25.9 °F 14.8 °F 20.3 °F 79% 29.88 in 10.0 mi SW 12.7 mph - N/A   Clear
7:17 AM 25.7 °F 14.0 °F 20.3 °F 80% 29.87 in 10.0 mi SW 13.8 mph - N/A   Clear
7:37 AM 24.8 °F 15.3 °F 20.1 °F 82% 29.87 in 10.0 mi WSW 9.2 mph - N/A   Clear
7:57 AM 25.2 °F 14.4 °F 20.3 °F 82% 29.87 in 10.0 mi SW 11.5 mph - N/A   Clear
8:16 AM 25.7 °F 15.1 °F 20.8 °F 82% 29.87 in 10.0 mi WSW 11.5 mph - N/A   Clear
8:37 AM 25.7 °F 16.4 °F 20.5 °F 81% 29.89 in 10.0 mi WSW 9.2 mph - N/A   Clear
8:57 AM 26.6 °F 16.8 °F 21.2 °F 80% 29.90 in 10.0 mi WSW 10.4 mph - N/A   Clear
9:17 AM 27.5 °F 17.4 °F 21.7 °F 79% 29.91 in 10.0 mi WSW 11.5 mph - N/A   Clear
9:37 AM 28.6 °F 17.2 °F 22.1 °F 77% 29.91 in 10.0 mi WSW 15.0 mph 18.4 mph N/A   Clear
9:57 AM 28.8 °F 19.0 °F 22.1 °F 76% 29.93 in 10.0 mi SW 11.5 mph - N/A   Clear
10:16 AM 29.1 °F 20.0 °F 22.1 °F 75% 29.93 in 10.0 mi SW 10.4 mph - N/A   Clear
10:37 AM 29.5 °F 19.9 °F 22.1 °F 74% 29.92 in 10.0 mi SW 11.5 mph - N/A   Clear
10:57 AM 29.8 °F 20.3 °F 22.1 °F 73% 29.93 in 10.0 mi WSW 11.5 mph - N/A   Clear
11:17 AM 31.5 °F 23.5 °F 22.6 °F 70% 29.93 in 10.0 mi West 9.2 mph - N/A   Clear
11:36 AM 33.1 °F 26.1 °F 23.0 °F 66% 29.93 in 10.0 mi West 8.1 mph - N/A   Clear
11:57 AM 34.0 °F 26.6 °F 23.2 °F 65% 29.92 in 10.0 mi WSW 9.2 mph - N/A   Clear
12:17 PM 34.9 °F 29.0 °F 23.7 °F 64% 29.91 in 10.0 mi West 6.9 mph - N/A   Clear
12:37 PM 35.4 °F 28.4 °F 23.4 °F 62% 29.91 in 10.0 mi West 9.2 mph - N/A   Clear
1:16 PM 35.6 °F 29.9 °F 24.4 °F 64% 29.90 in 10.0 mi WSW 6.9 mph - N/A   Clear
1:37 PM 35.8 °F 30.1 °F 24.1 °F 62% 29.90 in 10.0 mi WSW 6.9 mph - N/A   Clear
1:57 PM 34.9 °F 29.0 °F 25.0 °F 67% 29.91 in 10.0 mi WSW 6.9 mph - N/A   Clear
2:17 PM 34.7 °F 28.1 °F 25.3 °F 69% 29.90 in 10.0 mi WSW 8.1 mph - N/A   Clear
2:36 PM 35.2 °F 28.8 °F 25.0 °F 66% 29.90 in 10.0 mi SW 8.1 mph - N/A   Clear
2:57 PM 35.1 °F 28.6 °F 24.3 °F 65% 29.90 in 10.0 mi WSW 8.1 mph - N/A   Clear
3:17 PM 34.7 °F 27.5 °F 24.6 °F 67% 29.91 in 10.0 mi WSW 9.2 mph - N/A   Clear
3:37 PM 34.2 °F 26.8 °F 24.8 °F 69% 29.92 in 10.0 mi WSW 9.2 mph - N/A   Clear
3:57 PM 34.0 °F 25.5 °F 24.3 °F 68% 29.92 in 10.0 mi WSW 11.5 mph - N/A   Clear
4:17 PM 32.9 °F 26.7 °F 23.9 °F 69% 29.93 in 10.0 mi SW 6.9 mph - N/A   Clear
4:37 PM 32.2 °F 25.8 °F 23.4 °F 70% 29.94 in 10.0 mi WSW 6.9 mph - N/A   Clear
5:17 PM 29.7 °F 22.8 °F 21.9 °F 73% 29.95 in 10.0 mi SW 6.9 mph - N/A   Clear
5:37 PM 28.4 °F 19.7 °F 21.7 °F 76% 29.95 in 10.0 mi SW 9.2 mph - N/A   Clear
5:57 PM 28.8 °F 20.9 °F 21.6 °F 74% 29.94 in 10.0 mi WSW 8.1 mph - N/A   Clear
6:17 PM 28.4 °F 19.7 °F 21.7 °F 76% 29.95 in 10.0 mi SW 9.2 mph - N/A   Clear
6:37 PM 28.4 °F 19.7 °F 21.6 °F 76% 29.95 in 10.0 mi SW 9.2 mph - N/A   Clear
6:57 PM 28.4 °F 20.4 °F 21.2 °F 74% 29.95 in 10.0 mi SW 8.1 mph - N/A   Clear
7:17 PM 28.2 °F 19.5 °F 21.4 °F 76% 29.95 in 10.0 mi WSW 9.2 mph - N/A   Clear
7:36 PM 29.3 °F 21.5 °F 21.6 °F 73% 29.94 in 10.0 mi SW 8.1 mph - N/A   Clear
7:57 PM 28.9 °F 21.9 °F 21.2 °F 73% 29.94 in 10.0 mi SSW 6.9 mph - N/A   Clear
8:17 PM 28.6 °F 22.4 °F 20.7 °F 72% 29.94 in 10.0 mi SSW 5.8 mph - N/A   Clear
8:37 PM 27.7 °F 21.3 °F 20.3 °F 74% 29.94 in 10.0 mi SSW 5.8 mph - N/A   Clear
8:57 PM 27.7 °F 20.4 °F 20.1 °F 73% 29.94 in 10.0 mi SSW 6.9 mph - N/A   Clear
9:17 PM 27.1 °F 21.8 °F 19.4 °F 73% 29.95 in 10.0 mi SSW 4.6 mph - N/A   Clear
9:37 PM 26.4 °F 18.9 °F 19.2 °F 74% 29.95 in 10.0 mi SSW 6.9 mph - N/A   Clear
9:57 PM 25.3 °F 16.7 °F 18.9 °F 76% 29.95 in 10.0 mi SSW 8.1 mph - N/A   Clear
10:17 PM 25.9 °F 19.2 °F 19.0 °F 75% 29.95 in 10.0 mi SSW 5.8 mph - N/A   Scattered Clouds
10:57 PM 26.6 °F 18.2 °F 19.6 °F 75% 29.95 in 10.0 mi SW 8.1 mph - N/A   Scattered Clouds
11:36 PM 24.4 °F 15.6 °F 18.5 °F 78% 29.95 in 10.0 mi SW 8.1 mph - N/A   Clear
11:57 PM 22.8 °F 16.7 °F 17.6 °F 80% 29.95 in 10.0 mi SW 4.6 mph - N/A   Clear